QPF
0.01 0.01 0.06 0.07 0.05 0.05 0.07 0.05 0.04 0.04 0.03 0.04 0.06 0.05 0.04 0.03 0.03 0.04 0.04 0.04 0.05 0.05 0.05 0.04 0.04 0.05 0.09 0.11 0.12 0.11 0.10 0.09 0.07 0.04 0.03 0.03 0.04 0.05 0.05 0.06 0.05 0.04 0.07
0.01 0.01 0.04 0.06 0.05 0.04 0.05 0.05 0.04 0.04 0.04 0.04 0.05 0.03 0.03 0.04 0.04 0.05 0.06 0.05 0.04 0.04 0.05 0.05 0.06 0.09 0.09 0.09 0.08 0.10 0.11 0.11 0.08 0.06 0.05 0.04 0.05 0.06 0.07 0.08 0.06 0.04 0.06
0.01 0.01 0.03 0.03 0.04 0.04 0.05 0.05 0.05 0.04 0.03 0.03 0.03 0.03 0.04 0.06 0.06 0.06 0.07 0.08 0.06 0.05 0.05 0.06 0.08 0.13 0.11 0.08 0.08 0.10 0.10 0.09 0.07 0.07 0.05 0.05 0.05 0.08 0.09 0.08 0.06 0.07 0.07
0.01 0.01 0.01 0.02 0.02 0.04 0.05 0.06 0.06 0.04 0.03 0.03 0.03 0.04 0.05 0.11 0.08 0.06 0.06 0.09 0.10 0.08 0.06 0.06 0.07 0.10 0.10 0.09 0.09 0.08 0.07 0.08 0.07 0.06 0.04 0.04 0.06 0.10 0.11 0.10 0.07 0.06 0.07
0.00 0.00 0.01 0.03 0.02 0.03 0.04 0.05 0.05 0.05 0.04 0.04 0.04 0.05 0.07 0.16 0.16 0.12 0.09 0.11 0.13 0.10 0.08 0.07 0.06 0.08 0.09 0.09 0.08 0.08 0.09 0.09 0.08 0.04 0.03 0.03 0.07 0.11 0.10 0.10 0.07 0.05 0.05
0.00 0.00 0.01 0.03 0.02 0.04 0.05 0.04 0.04 0.04 0.05 0.04 0.04 0.05 0.07 0.15 0.17 0.17 0.14 0.13 0.11 0.07 0.08 0.07 0.07 0.08 0.09 0.09 0.07 0.08 0.09 0.09 0.06 0.02 0.01 0.02 0.05 0.09 0.08 0.08 0.07 0.06 0.05
0.00 0.00 0.01 0.03 0.03 0.04 0.05 0.04 0.04 0.05 0.05 0.03 0.04 0.04 0.06 0.08 0.11 0.13 0.12 0.09 0.06 0.05 0.06 0.07 0.08 0.08 0.07 0.07 0.06 0.06 0.07 0.07 0.03 0.01 0.01 0.02 0.05 0.07 0.09 0.09 0.07 0.08 0.08
0.01 0.01 0.01 0.04 0.04 0.03 0.04 0.04 0.04 0.06 0.05 0.04 0.05 0.05 0.05 0.06 0.07 0.09 0.10 0.09 0.07 0.06 0.07 0.08 0.08 0.07 0.07 0.08 0.07 0.06 0.04 0.03 0.02 0.01 0.01 0.03 0.07 0.10 0.12 0.11 0.09 0.08 0.08
0.01 0.00 0.00 0.01 0.03 0.02 0.03 0.03 0.04 0.05 0.07 0.06 0.04 0.05 0.04 0.05 0.06 0.07 0.07 0.07 0.07 0.05 0.05 0.06 0.05 0.06 0.07 0.07 0.05 0.04 0.03 0.02 0.01 0.01 0.02 0.05 0.10 0.11 0.10 0.09 0.09 0.09 0.08
0.01 0.00 0.00 0.00 0.01 0.01 0.01 0.04 0.05 0.04 0.05 0.05 0.05 0.04 0.03 0.04 0.05 0.05 0.03 0.04 0.04 0.05 0.05 0.06 0.05 0.05 0.05 0.04 0.03 0.03 0.02 0.01 0.01 0.01 0.03 0.08 0.14 0.12 0.09 0.08 0.07 0.06 0.06
0.01 0.00 0.00 0.00 0.00 0.00 0.01 0.02 0.04 0.05 0.05 0.04 0.03 0.04 0.04 0.02 0.02 0.02 0.03 0.04 0.04 0.04 0.06 0.06 0.05 0.06 0.04 0.03 0.02 0.02 0.02 0.01 0.00 0.01 0.03 0.08 0.10 0.08 0.07 0.06 0.05 0.04 0.04
0.01 0.00 0.00 0.00 0.01 0.00 0.01 0.01 0.01 0.02 0.02 0.02 0.01 0.01 0.01 0.01 0.00 0.01 0.03 0.05 0.05 0.05 0.07 0.07 0.06 0.04 0.03 0.02 0.02 0.02 0.02 0.01 0.00 0.00 0.03 0.09 0.09 0.07 0.06 0.06 0.05 0.04 0.04
0.01 0.01 0.01 0.01 0.01 0.01 0.01 0.01 0.01 0.01 0.01 0.01 0.01 0.01 0.00 0.00 0.01 0.01 0.02 0.03 0.03 0.06 0.07 0.06 0.05 0.04 0.03 0.02 0.02 0.02 0.02 0.01 0.00 0.00 0.03 0.07 0.09 0.10 0.09 0.09 0.07 0.06 0.07
0.01 0.01 0.01 0.02 0.01 0.01 0.01 0.01 0.01 0.01 0.01 0.00 0.01 0.01 0.00 0.00 0.00 0.02 0.03 0.04 0.05 0.06 0.08 0.06 0.04 0.04 0.04 0.03 0.03 0.03 0.03 0.02 0.01 0.01 0.03 0.05 0.06 0.08 0.09 0.08 0.08 0.07 0.06
0.01 0.01 0.01 0.01 0.02 0.03 0.02 0.02 0.02 0.02 0.01 0.01 0.01 0.01 0.00 0.00 0.00 0.02 0.03 0.05 0.07 0.07 0.08 0.06 0.04 0.04 0.04 0.03 0.03 0.03 0.03 0.03 0.02 0.01 0.02 0.03 0.04 0.05 0.07 0.08 0.09 0.08 0.06
0.00 0.01 0.02 0.02 0.02 0.03 0.03 0.01 0.01 0.01 0.02 0.01 0.01 0.00 0.00 0.01 0.01 0.01 0.02 0.05 0.10 0.09 0.09 0.07 0.05 0.04 0.03 0.03 0.02 0.02 0.02 0.02 0.02 0.01 0.01 0.01 0.02 0.03 0.04 0.04 0.05 0.06 0.05
0.00 0.01 0.01 0.03 0.02 0.02 0.03 0.02 0.02 0.02 0.02 0.02 0.01 0.01 0.01 0.01 0.02 0.02 0.02 0.03 0.08 0.09 0.10 0.09 0.06 0.04 0.03 0.02 0.02 0.01 0.02 0.02 0.02 0.01 0.00 0.00 0.01 0.02 0.03 0.03 0.04 0.06 0.06
0.00 0.01 0.01 0.02 0.02 0.02 0.02 0.01 0.02 0.03 0.03 0.02 0.01 0.01 0.01 0.01 0.01 0.01 0.02 0.02 0.04 0.04 0.06 0.06 0.06 0.04 0.04 0.03 0.03 0.04 0.03 0.01 0.01 0.02 0.01 0.00 0.00 0.01 0.02 0.02 0.03 0.05 0.08
0.01 0.01 0.01 0.02 0.02 0.02 0.02 0.01 0.02 0.03 0.03 0.03 0.02 0.01 0.01 0.01 0.01 0.01 0.02 0.02 0.03 0.04 0.04 0.04 0.04 0.05 0.04 0.04 0.03 0.03 0.03 0.02 0.01 0.02 0.02 0.01 0.00 0.01 0.01 0.01 0.01 0.02 0.05
0.01 0.00 0.01 0.01 0.01 0.01 0.02 0.01 0.01 0.02 0.02 0.02 0.02 0.01 0.01 0.01 0.00 0.01 0.01 0.02 0.03 0.05 0.05 0.03 0.03 0.04 0.04 0.03 0.02 0.03 0.03 0.01 0.01 0.01 0.01 0.01 0.01 0.01 0.01 0.01 0.01 0.01 0.03
0.01 0.01 0.01 0.01 0.00 0.01 0.02 0.01 0.00 0.01 0.01 0.01 0.01 0.01 0.00 0.00 0.00 0.00 0.00 0.01 0.01 0.03 0.04 0.04 0.02 0.02 0.02 0.02 0.03 0.03 0.03 0.02 0.01 0.02 0.02 0.02 0.01 0.01 0.01 0.02 0.02 0.02 0.03
0.01 0.01 0.01 0.01 0.01 0.01 0.02 0.01 0.00 0.00 0.01 0.01 0.01 0.01 0.01 0.00 0.00 0.00 0.00 0.00 0.01 0.01 0.03 0.03 0.03 0.02 0.02 0.02 0.02 0.03 0.03 0.02 0.02 0.02 0.03 0.03 0.02 0.03 0.03 0.03 0.04 0.03 0.03
0.02 0.02 0.01 0.01 0.01 0.02 0.02 0.01 0.00 0.00 0.01 0.01 0.01 0.02 0.01 0.01 0.01 0.00 0.00 0.00 0.00 0.00 0.01 0.02 0.03 0.03 0.03 0.03 0.02 0.03 0.02 0.02 0.02 0.03 0.03 0.02 0.02 0.03 0.04 0.04 0.05 0.05 0.04
0.02 0.02 0.02 0.01 0.01 0.02 0.02 0.01 0.01 0.01 0.01 0.01 0.01 0.01 0.01 0.01 0.01 0.00 0.00 0.00 0.00 0.00 0.00 0.01 0.02 0.03 0.04 0.03 0.02 0.02 0.02 0.02 0.02 0.02 0.03 0.03 0.03 0.04 0.05 0.06 0.07 0.08 0.08
0.02 0.02 0.02 0.02 0.02 0.02 0.02 0.02 0.02 0.02 0.02 0.02 0.02 0.01 0.01 0.01 0.01 0.01 0.00 0.00 0.00 0.00 0.00 0.01 0.01 0.01 0.02 0.02 0.02 0.02 0.04 0.03 0.01 0.01 0.01 0.03 0.03 0.03 0.04 0.06 0.07 0.09 0.10
0.01 0.02 0.01 0.02 0.02 0.02 0.03 0.02 0.02 0.03 0.03 0.02 0.02 0.01 0.01 0.01 0.01 0.01 0.01 0.01 0.00 0.00 0.00 0.00 0.00 0.00 0.02 0.03 0.02 0.01 0.01 0.01 0.00 0.00 0.00 0.01 0.01 0.01 0.02 0.04 0.06 0.07 0.10
MSLP
1015.97 1015.03 1014.26 1013.73 1013.41 1013.28 1013.25 1013.25 1013.20 1013.08 1012.87 1012.63 1012.39 1012.22 1012.14 1012.17 1012.28 1012.43 1012.57 1012.67 1012.71 1012.69 1012.64 1012.60 1012.58 1012.61 1012.69 1012.78 1012.87 1012.93 1012.95 1012.94 1012.90 1012.87 1012.87 1012.93 1013.03 1013.17 1013.32 1013.46 1013.57 1013.64 1013.68
1016.12 1015.26 1014.56 1014.06 1013.77 1013.65 1013.63 1013.62 1013.57 1013.44 1013.23 1013.00 1012.79 1012.65 1012.61 1012.67 1012.80 1012.95 1013.08 1013.16 1013.16 1013.09 1013.00 1012.91 1012.86 1012.85 1012.89 1012.96 1013.03 1013.07 1013.09 1013.07 1013.04 1013.02 1013.04 1013.10 1013.21 1013.36 1013.51 1013.64 1013.73 1013.78 1013.79
1016.16 1015.40 1014.77 1014.34 1014.09 1013.98 1013.96 1013.95 1013.89 1013.77 1013.58 1013.38 1013.20 1013.09 1013.08 1013.15 1013.28 1013.42 1013.52 1013.55 1013.51 1013.40 1013.27 1013.15 1013.07 1013.04 1013.07 1013.12 1013.18 1013.22 1013.24 1013.23 1013.22 1013.23 1013.27 1013.35 1013.47 1013.61 1013.74 1013.85 1013.93 1013.95 1013.94
1016.09 1015.45 1014.92 1014.55 1014.35 1014.27 1014.26 1014.25 1014.20 1014.08 1013.92 1013.74 1013.59 1013.51 1013.50 1013.57 1013.68 1013.78 1013.84 1013.84 1013.76 1013.63 1013.49 1013.36 1013.28 1013.25 1013.28 1013.33 1013.39 1013.44 1013.47 1013.48 1013.49 1013.52 1013.58 1013.67 1013.78 1013.91 1014.01 1014.09 1014.13 1014.12 1014.09
1015.98 1015.45 1015.02 1014.73 1014.58 1014.54 1014.54 1014.53 1014.48 1014.37 1014.22 1014.06 1013.93 1013.86 1013.86 1013.91 1013.98 1014.05 1014.07 1014.04 1013.95 1013.82 1013.69 1013.59 1013.53 1013.53 1013.57 1013.64 1013.70 1013.76 1013.80 1013.83 1013.86 1013.91 1013.97 1014.05 1014.14 1014.23 1014.29 1014.31 1014.30 1014.25 1014.20
1015.90 1015.47 1015.14 1014.93 1014.83 1014.80 1014.81 1014.80 1014.75 1014.64 1014.50 1014.34 1014.22 1014.15 1014.13 1014.16 1014.21 1014.24 1014.24 1014.19 1014.11 1014.02 1013.94 1013.89 1013.88 1013.92 1013.99 1014.07 1014.14 1014.21 1014.25 1014.29 1014.33 1014.37 1014.42 1014.48 1014.52 1014.53 1014.51 1014.45 1014.37 1014.28 1014.20
1015.93 1015.58 1015.33 1015.17 1015.11 1015.10 1015.10 1015.08 1015.01 1014.89 1014.74 1014.59 1014.47 1014.39 1014.36 1014.37 1014.38 1014.39 1014.38 1014.35 1014.31 1014.27 1014.25 1014.28 1014.33 1014.42 1014.52 1014.61 1014.69 1014.75 1014.79 1014.82 1014.85 1014.88 1014.90 1014.89 1014.85 1014.77 1014.63 1014.46 1014.29 1014.14 1014.03
1016.11 1015.82 1015.62 1015.51 1015.46 1015.45 1015.43 1015.37 1015.27 1015.13 1014.97 1014.82 1014.70 1014.62 1014.58 1014.57 1014.57 1014.57 1014.57 1014.56 1014.57 1014.60 1014.66 1014.76 1014.88 1015.01 1015.14 1015.24 1015.31 1015.35 1015.37 1015.39 1015.40 1015.40 1015.36 1015.28 1015.13 1014.91 1014.63 1014.32 1014.02 1013.79 1013.65
1016.45 1016.20 1016.02 1015.93 1015.88 1015.84 1015.78 1015.69 1015.56 1015.39 1015.22 1015.07 1014.96 1014.88 1014.84 1014.83 1014.83 1014.83 1014.84 1014.87 1014.93 1015.02 1015.15 1015.32 1015.49 1015.65 1015.79 1015.88 1015.93 1015.96 1015.96 1015.95 1015.93 1015.89 1015.79 1015.61 1015.33 1014.96 1014.50 1014.02 1013.57 1013.23 1013.03
1016.89 1016.66 1016.50 1016.41 1016.34 1016.26 1016.17 1016.03 1015.86 1015.68 1015.51 1015.38 1015.28 1015.22 1015.20 1015.20 1015.20 1015.21 1015.24 1015.30 1015.39 1015.53 1015.72 1015.92 1016.13 1016.31 1016.44 1016.51 1016.54 1016.54 1016.52 1016.48 1016.43 1016.34 1016.17 1015.89 1015.47 1014.93 1014.29 1013.62 1013.00 1012.51 1012.23
1017.37 1017.16 1017.01 1016.91 1016.82 1016.71 1016.56 1016.39 1016.20 1016.01 1015.86 1015.75 1015.69 1015.67 1015.68 1015.69 1015.71 1015.73 1015.77 1015.85 1015.96 1016.13 1016.34 1016.56 1016.77 1016.94 1017.05 1017.11 1017.11 1017.08 1017.04 1016.98 1016.91 1016.77 1016.53 1016.15 1015.60 1014.88 1014.05 1013.18 1012.37 1011.74 1011.34
1017.84 1017.65 1017.51 1017.41 1017.29 1017.15 1016.97 1016.77 1016.57 1016.39 1016.27 1016.20 1016.20 1016.22 1016.27 1016.31 1016.35 1016.38 1016.43 1016.51 1016.63 1016.80 1017.01 1017.22 1017.42 1017.57 1017.65 1017.67 1017.65 1017.59 1017.53 1017.47 1017.37 1017.20 1016.90 1016.43 1015.75 1014.88 1013.87 1012.81 1011.82 1011.02 1010.50
1018.24 1018.09 1017.97 1017.87 1017.74 1017.57 1017.37 1017.16 1016.96 1016.81 1016.73 1016.73 1016.77 1016.86 1016.95 1017.03 1017.09 1017.13 1017.17 1017.25 1017.36 1017.52 1017.71 1017.90 1018.07 1018.19 1018.24 1018.23 1018.18 1018.11 1018.04 1017.96 1017.85 1017.65 1017.31 1016.76 1015.98 1014.98 1013.82 1012.59 1011.44 1010.48 1009.83
1018.58 1018.47 1018.38 1018.29 1018.16 1017.98 1017.77 1017.56 1017.38 1017.27 1017.24 1017.28 1017.39 1017.53 1017.67 1017.78 1017.86 1017.91 1017.96 1018.03 1018.14 1018.28 1018.44 1018.61 1018.74 1018.82 1018.84 1018.81 1018.73 1018.65 1018.57 1018.49 1018.37 1018.15 1017.77 1017.17 1016.32 1015.23 1013.96 1012.62 1011.33 1010.25 1009.48
1018.88 1018.81 1018.76 1018.68 1018.55 1018.38 1018.17 1017.98 1017.82 1017.74 1017.75 1017.85 1018.01 1018.19 1018.36 1018.50 1018.60 1018.67 1018.73 1018.81 1018.91 1019.04 1019.18 1019.33 1019.43 1019.49 1019.48 1019.42 1019.33 1019.24 1019.15 1019.06 1018.93 1018.70 1018.31 1017.69 1016.80 1015.67 1014.35 1012.93 1011.57 1010.40 1009.53
1019.17 1019.14 1019.11 1019.05 1018.93 1018.76 1018.57 1018.40 1018.27 1018.22 1018.26 1018.39 1018.57 1018.77 1018.97 1019.13 1019.25 1019.34 1019.42 1019.51 1019.62 1019.76 1019.90 1020.03 1020.12 1020.16 1020.13 1020.06 1019.96 1019.86 1019.77 1019.68 1019.55 1019.32 1018.93 1018.31 1017.43 1016.30 1014.98 1013.57 1012.19 1010.98 1010.05
1019.49 1019.48 1019.46 1019.40 1019.29 1019.14 1018.97 1018.82 1018.72 1018.69 1018.75 1018.88 1019.06 1019.26 1019.46 1019.62 1019.76 1019.88 1019.99 1020.10 1020.24 1020.40 1020.55 1020.69 1020.77 1020.80 1020.77 1020.69 1020.60 1020.50 1020.41 1020.32 1020.20 1019.98 1019.61 1019.03 1018.20 1017.13 1015.87 1014.51 1013.17 1011.97 1011.03
1019.85 1019.83 1019.80 1019.73 1019.63 1019.49 1019.35 1019.23 1019.15 1019.14 1019.19 1019.31 1019.47 1019.65 1019.82 1019.98 1020.12 1020.25 1020.40 1020.55 1020.73 1020.92 1021.10 1021.25 1021.35 1021.38 1021.36 1021.29 1021.20 1021.11 1021.04 1020.97 1020.87 1020.69 1020.36 1019.83 1019.09 1018.11 1016.96 1015.71 1014.46 1013.32 1012.39
1020.22 1020.17 1020.11 1020.03 1019.93 1019.82 1019.70 1019.61 1019.56 1019.56 1019.61 1019.70 1019.81 1019.94 1020.07 1020.20 1020.34 1020.48 1020.65 1020.85 1021.07 1021.29 1021.51 1021.68 1021.79 1021.85 1021.84 1021.79 1021.72 1021.66 1021.62 1021.59 1021.53 1021.40 1021.14 1020.71 1020.07 1019.23 1018.22 1017.11 1015.99 1014.94 1014.06
1020.60 1020.49 1020.38 1020.28 1020.18 1020.09 1020.02 1019.97 1019.95 1019.97 1020.00 1020.05 1020.11 1020.18 1020.25 1020.34 1020.45 1020.60 1020.79 1021.01 1021.27 1021.53 1021.76 1021.96 1022.09 1022.16 1022.17 1022.15 1022.13 1022.11 1022.12 1022.14 1022.15 1022.09 1021.93 1021.61 1021.11 1020.42 1019.58 1018.64 1017.66 1016.73 1015.91
1020.93 1020.76 1020.60 1020.47 1020.37 1020.31 1020.29 1020.29 1020.32 1020.35 1020.38 1020.39 1020.40 1020.40 1020.40 1020.44 1020.52 1020.65 1020.84 1021.08 1021.35 1021.63 1021.88 1022.08 1022.23 1022.31 1022.35 1022.37 1022.39 1022.43 1022.51 1022.60 1022.69 1022.74 1022.69 1022.49 1022.14 1021.62 1020.96 1020.18 1019.36 1018.55 1017.81
1021.19 1020.96 1020.75 1020.59 1020.50 1020.48 1020.51 1020.57 1020.65 1020.72 1020.75 1020.73 1020.69 1020.62 1020.57 1020.54 1020.57 1020.68 1020.86 1021.09 1021.36 1021.63 1021.88 1022.08 1022.22 1022.31 1022.37 1022.42 1022.49 1022.61 1022.76 1022.94 1023.13 1023.29 1023.35 1023.30 1023.10 1022.75 1022.25 1021.65 1020.97 1020.28 1019.62
1021.39 1021.10 1020.85 1020.67 1020.59 1020.60 1020.68 1020.81 1020.95 1021.05 1021.09 1021.07 1020.99 1020.87 1020.76 1020.68 1020.67 1020.73 1020.88 1021.09 1021.34 1021.59 1021.81 1021.98 1022.11 1022.19 1022.26 1022.34 1022.46 1022.63 1022.86 1023.13 1023.42 1023.69 1023.88 1023.96 1023.91 1023.71 1023.38 1022.93 1022.40 1021.83 1021.25
1021.53 1021.20 1020.92 1020.72 1020.64 1020.68 1020.82 1021.00 1021.19 1021.34 1021.41 1021.38 1021.28 1021.13 1020.97 1020.85 1020.79 1020.82 1020.93 1021.10 1021.31 1021.52 1021.70 1021.84 1021.93 1022.00 1022.06 1022.16 1022.31 1022.53 1022.82 1023.17 1023.54 1023.90 1024.20 1024.40 1024.49 1024.44 1024.26 1023.96 1023.56 1023.10 1022.60
1021.63 1021.29 1020.98 1020.77 1020.69 1020.75 1020.91 1021.14 1021.38 1021.56 1021.65 1021.64 1021.53 1021.37 1021.18 1021.02 1020.93 1020.92 1020.99 1021.13 1021.29 1021.45 1021.59 1021.68 1021.74 1021.77 1021.82 1021.91 1022.07 1022.32 1022.65 1023.04 1023.47 1023.90 1024.29 1024.60 1024.81 1024.89 1024.85 1024.69 1024.43 1024.08 1023.66
1021.71 1021.37 1021.05 1020.83 1020.74 1020.79 1020.97 1021.22 1021.48 1021.69 1021.80 1021.81 1021.70 1021.53 1021.34 1021.16 1021.05 1021.01 1021.05 1021.15 1021.28 1021.39 1021.49 1021.53 1021.55 1021.55 1021.57 1021.65 1021.79 1022.04 1022.37 1022.78 1023.24 1023.71 1024.17 1024.56 1024.87 1025.08 1025.17 1025.15 1025.02 1024.79 1024.47
Thickness
5742 5745 5747 5748 5748 5749 5750 5751 5752 5753 5754 5755 5756 5757 5758 5759 5760 5761 5762 5763 5764 5764 5765 5765 5766 5766 5766 5766 5766 5766 5765 5765 5765 5765 5765 5765 5765 5766 5766 5766 5766 5766 5765
5742 5744 5745 5745 5746 5747 5748 5749 5750 5751 5752 5752 5753 5754 5755 5756 5757 5758 5760 5761 5761 5762 5762 5763 5763 5763 5764 5763 5763 5762 5762 5762 5762 5762 5762 5762 5763 5763 5763 5763 5763 5763 5763
5742 5743 5743 5744 5744 5745 5746 5746 5747 5748 5749 5749 5750 5751 5752 5753 5755 5756 5757 5758 5759 5759 5759 5760 5760 5760 5760 5760 5760 5760 5760 5759 5759 5759 5759 5759 5760 5760 5761 5761 5761 5761 5761
5740 5741 5741 5742 5742 5743 5743 5744 5744 5745 5745 5746 5747 5748 5749 5751 5752 5753 5754 5755 5755 5756 5756 5757 5757 5757 5757 5757 5757 5757 5757 5757 5756 5756 5756 5757 5757 5758 5758 5758 5758 5758 5758
5738 5739 5739 5740 5740 5740 5740 5741 5741 5742 5742 5743 5744 5745 5746 5747 5749 5750 5751 5751 5752 5752 5753 5753 5754 5754 5754 5754 5754 5754 5754 5753 5753 5753 5753 5754 5755 5755 5755 5755 5755 5755 5755
5736 5736 5737 5737 5737 5738 5738 5738 5738 5739 5739 5740 5741 5741 5742 5743 5745 5746 5747 5748 5748 5749 5749 5750 5750 5750 5750 5751 5751 5751 5750 5750 5750 5750 5750 5751 5752 5752 5752 5752 5752 5752 5752
5734 5734 5734 5734 5734 5734 5735 5735 5735 5735 5736 5737 5738 5738 5739 5740 5741 5742 5743 5744 5744 5745 5745 5746 5746 5746 5747 5747 5747 5747 5747 5747 5747 5747 5747 5748 5748 5749 5749 5749 5749 5749 5748
5731 5731 5731 5731 5731 5731 5731 5732 5732 5733 5733 5734 5734 5735 5736 5737 5738 5739 5739 5740 5741 5741 5741 5741 5742 5742 5743 5743 5743 5743 5743 5743 5743 5743 5744 5744 5745 5745 5746 5746 5745 5745 5745
5729 5729 5728 5728 5728 5728 5728 5729 5729 5730 5730 5730 5731 5732 5733 5734 5735 5735 5736 5736 5737 5737 5738 5737 5738 5738 5738 5738 5738 5738 5739 5739 5739 5739 5740 5740 5741 5741 5741 5741 5741 5741 5741
5727 5726 5725 5725 5725 5725 5725 5725 5726 5727 5727 5727 5728 5728 5729 5730 5731 5732 5732 5733 5733 5734 5734 5734 5734 5733 5734 5734 5734 5734 5734 5734 5735 5735 5735 5736 5737 5737 5737 5737 5737 5737 5737
5723 5723 5723 5723 5722 5722 5722 5722 5723 5723 5724 5724 5724 5725 5726 5727 5727 5728 5729 5729 5730 5730 5730 5730 5730 5729 5729 5729 5729 5729 5729 5729 5730 5730 5731 5732 5733 5733 5733 5733 5733 5733 5733
5718 5720 5720 5720 5720 5719 5719 5719 5720 5720 5720 5721 5721 5722 5722 5723 5724 5724 5725 5725 5726 5726 5726 5726 5725 5725 5725 5724 5725 5725 5724 5725 5725 5726 5726 5728 5728 5729 5729 5729 5729 5729 5729
5716 5717 5718 5717 5717 5717 5716 5716 5717 5717 5717 5717 5718 5718 5719 5720 5720 5720 5721 5721 5722 5722 5722 5721 5721 5720 5720 5720 5720 5720 5720 5720 5720 5721 5722 5723 5724 5724 5725 5725 5725 5725 5724
5715 5715 5716 5715 5715 5715 5714 5714 5714 5714 5714 5714 5715 5715 5716 5716 5716 5716 5717 5717 5718 5718 5718 5717 5716 5715 5715 5715 5715 5715 5715 5715 5715 5716 5717 5718 5719 5720 5720 5720 5721 5720 5720
5713 5713 5714 5714 5713 5712 5712 5712 5711 5711 5711 5711 5712 5712 5713 5713 5712 5713 5713 5713 5714 5714 5714 5712 5711 5711 5710 5710 5710 5710 5710 5710 5710 5711 5711 5713 5714 5715 5715 5716 5716 5716 5716
5712 5712 5712 5712 5711 5711 5710 5709 5708 5708 5708 5708 5709 5709 5709 5710 5709 5709 5709 5709 5709 5710 5709 5708 5707 5707 5706 5705 5705 5705 5705 5705 5706 5706 5706 5707 5708 5709 5710 5711 5711 5711 5711
5712 5712 5711 5711 5710 5709 5708 5707 5706 5706 5706 5706 5706 5706 5706 5706 5706 5706 5705 5705 5705 5705 5704 5703 5703 5702 5701 5701 5700 5700 5700 5700 5701 5701 5701 5702 5703 5704 5705 5706 5706 5706 5706
5713 5711 5710 5711 5709 5707 5706 5705 5704 5704 5703 5703 5703 5703 5703 5703 5703 5703 5702 5701 5701 5701 5700 5699 5698 5697 5696 5695 5694 5695 5695 5695 5696 5696 5696 5696 5697 5698 5699 5700 5700 5701 5701
5713 5711 5709 5708 5707 5706 5704 5703 5702 5701 5701 5700 5700 5700 5700 5700 5700 5700 5699 5698 5698 5697 5697 5696 5693 5692 5691 5690 5690 5690 5690 5690 5691 5691 5691 5691 5692 5692 5693 5693 5694 5695 5695
5713 5711 5708 5707 5705 5704 5702 5701 5700 5698 5698 5698 5697 5697 5698 5698 5697 5697 5696 5695 5695 5694 5692 5691 5690 5689 5687 5687 5687 5685 5685 5686 5686 5686 5686 5686 5687 5687 5687 5688 5689 5689 5689
5711 5709 5707 5705 5703 5702 5700 5698 5696 5694 5694 5695 5695 5695 5695 5695 5694 5694 5692 5692 5691 5690 5689 5688 5687 5685 5683 5683 5681 5679 5679 5681 5681 5681 5681 5681 5682 5682 5683 5683 5683 5683 5683
5710 5707 5705 5704 5702 5701 5699 5697 5696 5694 5692 5692 5692 5692 5692 5692 5691 5691 5689 5688 5688 5686 5685 5684 5683 5681 5680 5679 5677 5674 5671 5672 5674 5676 5676 5677 5677 5677 5678 5678 5678 5678 5678
5708 5707 5706 5703 5701 5700 5698 5696 5694 5692 5690 5689 5689 5689 5689 5689 5688 5688 5687 5686 5685 5684 5682 5681 5680 5679 5676 5675 5675 5672 5667 5665 5666 5669 5670 5671 5672 5672 5672 5673 5673 5673 5673
5708 5707 5705 5702 5700 5698 5697 5695 5692 5688 5686 5686 5686 5686 5686 5686 5686 5685 5685 5684 5682 5681 5680 5679 5678 5677 5675 5672 5672 5671 5669 5667 5663 5661 5664 5666 5667 5667 5667 5667 5668 5668 5668
5708 5705 5703 5701 5699 5697 5695 5693 5690 5688 5686 5685 5684 5684 5684 5684 5683 5683 5682 5681 5680 5679 5677 5677 5676 5675 5673 5671 5669 5667 5665 5663 5662 5659 5657 5659 5660 5661 5662 5662 5662 5662 5662
5706 5703 5701 5698 5696 5694 5693 5691 5689 5687 5685 5683 5682 5681 5681 5681 5681 5681 5680 5679 5678 5676 5675 5674 5673 5672 5671 5669 5668 5666 5664 5661 5659 5657 5654 5653 5654 5656 5657 5657 5658 5658 5658